Ypsilanti, MI

7:13 AM EDT on September 25, 2017 (GMT -0400)
Willow Run

Weather History for KYIP - September, 2013

Change the Weather History Date:

Saturday, September 28, 2013

  Actual Average Record
Temperature  
Mean Temperature 64 °F -  
Max Temperature 79 °F 70 °F 84 °F (1986)
Min Temperature 50 °F 48 °F 33 °F (1991)
Growing Degree Days 14 (Base 50)    
Moisture  
Dew Point 52 °F    
Average Humidity 78    
Maximum Humidity 94    
Minimum Humidity 37    
Precipitation  
Precipitation 0.01 in - - ()
Sea Level Pressure  
Sea Level Pressure 30.17 in    
Wind  
Wind Speed 1 mph (SE)    
Max Wind Speed 12 mph    
Max Gust Speed 17 mph    
Visibility 5 miles    
Events Fog    
Averages and records for this station are not official NWS values.
T = Trace of Precipitation, MM = Missing Value Source: NWS Daily Summary

Daily Weather History Graph

Daily Weather History Graph

Search for Another Location

Airport or City:

Trip Planner

Search our weather history database for the weather conditions in past years. The results will help you decide how hot, cold, wet, or windy it might be!

Date:

Astronomy

Sep. 28, 2013 Rise Set
Actual Time 7:28 AM EDT 7:20 PM EDT
Civil Twilight 7:00 AM EDT 7:48 PM EDT
Nautical Twilight 6:27 AM EDT 8:20 PM EDT
Astronomical Twilight 5:54 AM EDT 8:53 PM EDT
Moon 1:08 AM EDT (9/28) 3:44 PM EDT (9/28)
Length of Visible Light 12h 48m
Length of Day
11h 52m
Last Quarter, 36% of the Moon is Illuminated
Sep 28
Last Quarter
Oct 4
New
Oct 11
First Quarter
Oct 18
Full
Oct 26
Last Quarter

Hourly Weather History & Observations

Time (EDT) Temp. Dew Point Humidity Pressure Visibility Wind Dir Wind Speed Gust Speed Precip Events Conditions
12:03 AM 53.6 °F 51.8 °F 94% 30.20 in 10.0 mi Calm Calm - N/A   Clear
12:53 AM 53.1 °F 50.0 °F 89% 30.19 in 10.0 mi Calm Calm - N/A   Clear
1:19 AM 53.6 °F 48.2 °F 82% 30.20 in 2.0 mi Calm Calm - N/A   Clear
1:29 AM 53.6 °F 50.0 °F 88% 30.20 in 6.0 mi Calm Calm - N/A   Clear
1:53 AM 54.0 °F 50.0 °F 86% 30.18 in 5.0 mi Calm Calm - N/A   Clear
2:06 AM 55.4 °F 51.8 °F 88% 30.20 in 1.5 mi Calm Calm - N/A   Clear
2:16 AM 53.6 °F 50.0 °F 88% 30.20 in 3.0 mi Calm Calm - N/A   Clear
2:53 AM 54.0 °F 50.0 °F 86% 30.18 in 7.0 mi Calm Calm - N/A   Clear
3:53 AM 53.1 °F 48.9 °F 86% 30.18 in 5.0 mi Calm Calm - 0.01 in   Clear
4:53 AM 51.1 °F 46.9 °F 86% 30.19 in 4.0 mi Calm Calm - N/A   Scattered Clouds
5:02 AM 51.8 °F 46.4 °F 82% 30.19 in 4.0 mi Calm Calm - N/A   Mostly Cloudy
5:26 AM 51.8 °F 48.2 °F 88% 30.20 in 6.0 mi Calm Calm - N/A   Overcast
5:40 AM 51.8 °F 48.2 °F 88% 30.20 in 1.2 mi Calm Calm - N/A   Overcast
5:45 AM 51.8 °F 48.2 °F 88% 30.20 in 0.2 mi Calm Calm - N/A Fog Fog
5:50 AM 51.8 °F 48.2 °F 88% 30.20 in 0.5 mi Calm Calm - N/A Fog Fog
5:53 AM 51.1 °F 48.0 °F 89% 30.19 in 0.8 mi Calm Calm - N/A   Mist
5:56 AM 50.0 °F 48.2 °F 94% 30.20 in 2.5 mi Calm Calm - N/A   Overcast
6:03 AM 50.0 °F 46.4 °F 87% 30.20 in 1.0 mi Calm Calm - N/A   Mist
6:06 AM 51.8 °F 46.4 °F 82% 30.20 in 0.2 mi NE 3.5 mph - N/A Fog Fog
6:38 AM 51.8 °F 48.2 °F 88% 30.20 in 1.2 mi NNE 3.5 mph - N/A   Overcast
6:42 AM 51.8 °F 48.2 °F 88% 30.20 in 0.5 mi Calm Calm - N/A Fog Fog
6:53 AM 52.0 °F 48.0 °F 86% 30.19 in 0.5 mi Calm Calm - N/A Fog Fog
7:25 AM 53.6 °F 50.0 °F 88% 30.21 in 0.2 mi Calm Calm - N/A Fog Fog
7:53 AM 55.9 °F 52.0 °F 87% 30.21 in 0.2 mi Calm Calm - N/A Fog Fog
8:53 AM 57.0 °F 52.0 °F 83% 30.20 in 0.2 mi Calm Calm - N/A   Haze
9:53 AM 60.1 °F 57.0 °F 90% 30.21 in 0.2 mi Calm Calm - N/A Fog Fog
10:23 AM 62.6 °F 59.0 °F 88% 30.22 in 0.2 mi Calm Calm - N/A Fog Fog
10:38 AM 62.6 °F 59.0 °F 88% 30.22 in 2.0 mi Calm Calm - N/A   Overcast
10:44 AM 64.4 °F 60.8 °F 88% 30.22 in 7.0 mi Calm Calm - N/A   Scattered Clouds
10:53 AM 64.9 °F 61.0 °F 87% 30.21 in 7.0 mi Calm Calm - N/A   Scattered Clouds
11:53 AM 73.0 °F 55.9 °F 55% 30.19 in 10.0 mi SE 3.5 mph - N/A   Clear
12:53 PM 77.0 °F 55.0 °F 47% 30.17 in 10.0 mi SSE 9.2 mph 17.3 mph N/A   Clear
1:53 PM 78.1 °F 50.0 °F 37% 30.14 in 10.0 mi SE 8.1 mph - N/A   Clear
2:53 PM 78.1 °F 51.1 °F 39% 30.11 in 10.0 mi SE 8.1 mph - N/A   Clear
3:53 PM 79.0 °F 52.0 °F 39% 30.09 in 10.0 mi SSE 9.2 mph - N/A   Clear
4:53 PM 77.0 °F 51.1 °F 40% 30.08 in 10.0 mi SE 11.5 mph - N/A   Clear
5:53 PM 75.0 °F 54.0 °F 48% 30.07 in 10.0 mi SE 11.5 mph - N/A   Clear
6:53 PM 69.1 °F 55.0 °F 61% 30.07 in 10.0 mi ESE 5.8 mph - N/A   Clear
7:53 PM 66.9 °F 54.0 °F 63% 30.06 in 10.0 mi SE 8.1 mph - N/A   Clear
8:53 PM 66.0 °F 54.0 °F 65% 30.06 in 10.0 mi SE 5.8 mph - N/A   Clear
9:53 PM 63.0 °F 55.0 °F 75% 30.05 in 10.0 mi SE 5.8 mph - N/A   Clear
10:53 PM 61.0 °F 55.0 °F 81% 30.04 in 10.0 mi SE 4.6 mph - N/A   Clear
11:53 PM 62.1 °F 55.0 °F 78% 30.03 in 10.0 mi SSE 4.6 mph - N/A   Clear